This demonstration page uses our WeatherBlox Daily Observations layout. Learn more.

Left ArrowRight Arrow

39.01783, -85.05884

Hourly Observations for August 11, 2020

Temp ( °F °C ) Dew Point ( °F °C ) Humidity (%) Winds ( mph kmh ) Pressure ( in mb ) Visibility ( mi km ) Precip ( " mm )
12:52 am 00:52 Cloudy with Light Rain 69 20.6 66 18.9 90 90 SE 6 9 29.98 1015 10 16.0934 0.11 2.794
1:52 am 01:52 Cloudy with Light Rain 69 20.6 66 18.9 90 90 S 16 26 29.87 1012 10 16.0934 0.01 0.254
2:52 am 02:52 Cloudy 68 20 66 18.9 93 93 SSE 10 17 29.87 1012 10 16.0934 0.001 0.001
3:52 am 03:52 Mostly Cloudy 69 20.6 66 18.9 90 90 WSW 3 6 29.9 1013 10 16.0934 0 0
4:23 am 04:23 Mostly Cloudy 68 20 66 18.9 93 93 W 9 15 29.95 1014 10 16.0934 0 0
4:37 am 04:37 Mostly Cloudy 68 20 66 18.9 93 93 WSW 7 11 29.96 1014 10 16.0934 0 0
4:52 am 04:52 Cloudy 69 20.6 66 18.9 90 90 W 7 11 29.96 1015 10 16.0934 0 0
5:09 am 05:09 Cloudy 69 20.6 66 18.9 90 90 WSW 5 7 29.97 1015 10 16.0934 0 0
5:21 am 05:21 Cloudy 68 20 66 18.9 93 93 SW 6 9 29.96 1014 10 16.0934 0 0
5:52 am 05:52 Cloudy 69 20.6 66 18.9 90 90 SW 6 9 29.96 1014 10 16.0934 0 0
6:52 am 06:52 Mostly Cloudy 68 20 66 18.9 93 93 SW 5 7 29.97 1015 10 16.0934 0 0
7:52 am 07:52 Mostly Cloudy 69 20.6 66 18.9 90 90 WNW 6 9 29.97 1015 10 16.0934 0 0
8:19 am 08:19 Mostly Cloudy 70 21.1 66 18.9 87 87 W 9 15 29.97 1015 10 16.0934 0 0
8:52 am 08:52 Cloudy 70 21.1 66 18.9 87 87 WNW 7 11 29.98 1015 10 16.0934 0 0
9:52 am 09:52 Cloudy 72 22.2 67 19.4 84 84 NW 7 11 29.99 1016 10 16.0934 0 0
9:59 am 09:59 Cloudy 72 22.2 67 19.4 84 84 NW 8 13 29.99 1016 10 16.0934 0 0
10:28 am 10:28 Mostly Cloudy 73 22.8 67 19.4 81 81 NW 6 9 30 1016 10 16.0934 0 0
10:52 am 10:52 Mostly Cloudy 74 23.3 68 20 82 82 NW 7 11 30.01 1016 10 16.0934 0 0
11:15 am 11:15 Mostly Cloudy 75 23.9 68 20 79 79 W 8 13 30.01 1016 10 16.0934 0 0
11:52 am 11:52 Mostly Cloudy 77 25 68 20 74 74 WNW 5 7 30.01 1016 10 16.0934 0 0
12:52 pm 12:52 Mostly Cloudy 80 26.7 69 20.6 69 69 VRB 5 7 30.01 1016 10 16.0934 0 0
1:29 pm 13:29 Mostly Cloudy 80 26.7 69 20.6 69 69 S 6 9 29.99 1015 10 16.0934 0 0
1:52 pm 13:52 Mostly Cloudy 80 26.7 68 20 67 67 VRB 6 9 30 1016 10 16.0934 0 0
2:52 pm 14:52 Mostly Cloudy 82 27.8 68 20 63 63 SSW 5 7 29.98 1015 10 16.0934 0 0
3:52 pm 15:52 Mostly Cloudy 82 27.8 69 20.6 65 65 S 5 7 29.97 1015 10 16.0934 0 0
4:52 pm 16:52 Mostly Cloudy 82 27.8 69 20.6 65 65 SW 6 9 29.96 1015 10 16.0934 0 0
5:52 pm 17:52 Mostly Cloudy 82 27.8 69 20.6 65 65 SSW 3 6 29.96 1014 10 16.0934 0 0
6:52 pm 18:52 Mostly Cloudy 80 26.7 69 20.6 69 69 WSW 3 6 29.96 1015 10 16.0934 0 0
7:52 pm 19:52 Partly Cloudy 81 27.2 69 20.6 67 67 WSW 5 7 29.96 1014 10 16.0934 0 0
8:52 pm 20:52 Partly Cloudy 77 25 68 20 74 74 W 5 7 29.97 1015 10 16.0934 0 0
9:52 pm 21:52 Partly Cloudy 75 23.9 68 20 79 79 W 5 7 29.98 1015 10 16.0934 0 0
10:52 pm 22:52 Partly Cloudy 77 25 68 20 74 74 NNW 3 6 29.99 1016 10 16.0934 0 0
11:52 pm 23:52 Partly Cloudy 74 23.3 68 20 82 82 N 3 6 29.99 1016 10 16.0934 0 0

Powered by AerisWeather